FW1093 Weather Reports


Display with metric or nautical units.
time (UTC)temp
F
wind
direction
speed
MPH
gust
MPH
rain 1hr
in
rain 24hr
in
rain mn
in
humidity
%
barometer
mb
20260904190321 76 273 0.0 1.0 0.00 0.73 0.73 72 1011.5
20260904185314 76 312 0.0 0.0 0.00 0.73 0.73 74 1011.4
20260904184323 78 316 0.0 1.0 0.00 0.73 0.73 73 1011.5
20260904183312 78 285 0.0 3.0 0.00 0.73 0.73 64 1011.6
20260904182347 79 211 1.0 4.0 0.00 0.73 0.73 63 1011.5
20260904181314 79 319 0.0 5.0 0.00 0.73 0.73 64 1011.4
20260904180329 78 327 1.0 5.0 0.00 0.73 0.73 65 1011.4
20260904175316 78 259 0.0 3.0 0.00 0.73 0.73 65 1011.6
20260904174352 79 257 1.0 4.0 0.00 0.73 0.73 62 1011.4
20260904173319 79 283 1.0 4.0 0.00 0.73 0.73 62 1011.3
20260904172335 79 255 0.0 3.0 0.00 0.73 0.73 63 1011.3
20260904171324 78 278 0.0 3.0 0.00 0.73 0.73 65 1011.3
20260904170314 78 294 2.0 5.0 0.00 0.73 0.73 63 1011.5
20260904165322 78 316 1.0 7.0 0.00 0.73 0.73 68 1011.8
20260904164338 78 236 1.0 4.0 0.00 0.73 0.73 65 1011.9
20260904163328 77 204 1.0 3.0 0.00 0.73 0.73 65 1012.0
20260904162316 77 198 0.0 4.0 0.00 0.73 0.73 74 1011.8
20260904161332 77 63 1.0 5.0 0.00 0.73 0.73 68 1012.0
20260904160325 76 356 2.0 5.0 0.00 0.73 0.73 68 1012.0
20260904155322 75 357 2.0 7.0 0.00 0.73 0.73 72 1012.2
20260904154313 75 255 1.0 4.0 0.00 0.73 0.73 78 1012.2
20260904153333 75 240 0.0 3.0 0.00 0.73 0.73 77 1012.4
20260904152326 74 273 0.0 2.0 0.00 0.73 0.73 81 1012.4
20260904151317 74 160 0.0 4.0 0.00 0.73 0.73 81 1012.5
20260904150327 74 289 1.0 5.0 0.00 0.73 0.73 78 1012.5
20260904145320 73 288 1.0 4.0 0.00 0.73 0.73 85 1012.4
20260904144319 73 324 0.0 4.0 0.00 0.73 0.73 88 1012.4
20260904143330 73 288 0.0 3.0 0.00 0.73 0.73 88 1012.4
20260904142351 73 34 1.0 4.0 0.00 0.73 0.73 90 1012.5
20260904141324 72 269 0.0 2.0 0.00 0.73 0.73 92 1012.4
20260904140316 71 266 0.0 2.0 0.00 0.73 0.73 93 1012.2
20260904135358 71 309 0.0 2.0 0.00 0.73 0.73 95 1012.3
20260904134329 70 271 1.0 3.0 0.00 0.73 0.73 98 1012.2
20260904133321 70 284 0.0 1.0 0.00 0.73 0.73 98 1012.3
20260904132317 69 323 0.0 3.0 0.00 0.73 0.73 98 1012.3
20260904131336 69 360 0.0 1.0 0.00 0.73 0.73 98 1012.1
20260904130327 69 276 0.0 0.0 0.00 0.73 0.73 98 1012.2
20260904125322 69 276 0.0 0.0 0.00 0.73 0.73 98 1012.2
20260904124315 69 276 0.0 0.0 0.00 0.73 0.73 98 1012.0
20260904123327 69 276 0.0 0.0 0.00 0.73 0.73 98 1012.0
20260904122323 68 276 0.0 0.0 0.00 0.73 0.73 98 1012.0
20260904121312 68 276 0.0 0.0 0.00 0.73 0.73 98 1012.0
20260904120330 68 276 0.0 0.0 0.00 0.73 0.73 98 1012.1
20260904115324 68 276 0.0 0.0 0.00 0.73 0.73 98 1012.2
20260904114318 68 276 0.0 0.0 0.00 0.73 0.73 98 1012.1
20260904113340 68 276 0.0 0.0 0.00 0.73 0.73 98 1011.8
20260904112340 68 276 0.0 0.0 0.00 0.73 0.73 98 1011.7
20260904111342 68 276 0.0 0.0 0.00 0.73 0.73 98 1011.6
20260904110316 68 276 0.0 0.0 0.00 0.73 0.73 97 1011.5
20260904105311 68 276 0.0 0.0 0.00 0.73 0.73 97 1011.5
20260904104329 68 276 0.0 0.0 0.00 0.73 0.73 97 1011.4
20260904103325 68 276 0.0 0.0 0.00 0.73 0.73 97 1011.3
20260904102334 68 276 0.0 0.0 0.00 0.73 0.73 97 1011.3
20260904101328 68 276 0.0 0.0 0.00 0.73 0.73 97 1011.2
20260904100318 68 276 0.0 0.0 0.00 0.73 0.73 97 1011.3
20260904095314 68 276 0.0 0.0 0.00 0.73 0.73 97 1011.1
20260904094335 69 276 0.0 1.0 0.00 0.73 0.73 98 1011.1
20260904093329 68 276 0.0 0.0 0.00 0.73 0.73 97 1010.8
20260904092323 68 276 0.0 1.0 0.02 0.73 0.73 97 1011.1
20260904091337 68 276 0.0 0.0 0.04 0.73 0.73 97 1011.0
20260904090350 68 276 0.0 0.0 0.08 0.73 0.73 97 1010.8
20260904085352 69 276 0.0 0.0 0.47 0.73 0.73 97 1010.7
20260904084325 69 276 0.0 0.0 0.71 0.73 0.73 97 1010.2
20260904083345 69 276 0.0 0.0 0.72 0.73 0.73 97 1010.2
20260904082315 69 276 0.0 0.0 0.71 0.71 0.71 97 1010.4
20260904081335 69 276 0.0 1.0 0.69 0.69 0.69 97 1010.9
20260904080331 69 37 1.0 6.0 0.62 0.62 0.62 97 1011.0
20260904075351 69 321 0.0 4.0 0.24 0.24 0.24 97 1011.4
20260904074326 70 308 0.0 0.0 0.02 0.02 0.02 97 1011.0
20260904073318 70 308 0.0 0.0 0.01 0.01 0.01 97 1010.9
20260904072337 70 308 0.0 0.0 0.00 0.00 0.00 97 1011.0
20260904071332 70 308 0.0 0.0 0.00 0.00 0.00 97 1010.9
20260904070334 70 308 0.0 0.0 0.00 0.00 0.00 97 1011.2
20260904065329 70 308 0.0 0.0 0.00 0.02 0.00 97 1011.2
20260904064321 70 308 0.0 0.0 0.00 0.02 0.00 97 1011.2
20260904063314 70 307 0.0 0.0 0.00 0.02 0.00 97 1011.5
20260904062335 70 309 0.0 0.0 0.00 0.02 0.00 97 1011.3
20260904061326 69 309 0.0 0.0 0.00 0.02 0.00 97 1011.4
20260904060320 69 309 0.0 0.0 0.00 0.02 0.00 97 1011.5
20260904055358 69 309 0.0 0.0 0.00 0.33 0.00 97 1011.7
20260904054328 69 309 0.0 0.0 0.00 0.33 0.00 97 1011.7
20260904053321 69 309 0.0 0.0 0.00 0.33 0.00 97 1011.8
20260904052334 69 309 0.0 0.0 0.00 0.33 0.00 97 1011.8
20260904051327 69 309 0.0 0.0 0.00 0.33 0.00 97 1012.0
20260904050323 69 309 0.0 0.0 0.00 0.33 0.00 97 1012.1
20260904045313 70 309 0.0 0.0 0.00 0.33 0.00 97 1012.1
20260904044326 70 309 0.0 0.0 0.00 0.33 0.00 97 1012.1
20260904043345 70 309 0.0 0.0 0.00 0.33 0.00 97 1012.3
20260904042343 70 309 0.0 0.0 0.00 0.33 0.00 97 1012.4
20260904041314 70 309 0.0 0.0 0.00 0.33 0.00 97 1012.5
20260904040355 70 309 0.0 0.0 0.00 0.33 0.00 97 1012.5
20260904035324 70 309 0.0 0.0 0.00 0.33 0.33 97 1012.6
20260904034315 70 309 0.0 0.0 0.00 0.33 0.33 97 1012.7
20260904033357 70 309 0.0 0.0 0.00 0.33 0.33 97 1012.5
20260904032334 70 309 0.0 0.0 0.00 0.33 0.33 97 1012.9
20260904031332 70 309 0.0 0.0 0.00 0.33 0.33 97 1013.0
20260904030326 70 309 0.0 0.0 0.00 0.33 0.33 96 1013.1
20260904025348 70 309 0.0 0.0 0.00 0.33 0.33 96 1013.1
20260904024349 70 309 0.0 0.0 0.00 0.33 0.33 96 1012.8
20260904023324 70 309 0.0 0.0 0.00 0.33 0.33 96 1013.2
20260904022320 70 309 0.0 0.0 0.00 0.33 0.33 96 1013.2
20260904021344 70 309 0.0 0.0 0.00 0.33 0.33 96 1013.2
20260904020345 70 309 0.0 0.0 0.00 0.33 0.33 96 1013.0
20260904015324 71 309 0.0 0.0 0.00 0.33 0.33 96 1013.2
20260904014323 71 309 0.0 0.0 0.00 0.33 0.33 96 1013.5
20260904013315 71 309 0.0 0.0 0.00 0.33 0.33 96 1013.6
20260904012335 71 309 0.0 0.0 0.00 0.33 0.33 96 1013.8
20260904011326 71 309 0.0 0.0 0.00 0.33 0.33 96 1013.7
20260904010349 71 309 0.0 0.0 0.00 0.33 0.33 95 1013.4
20260904005321 72 309 0.0 0.0 0.00 0.33 0.33 95 1013.3
20260904004340 72 309 0.0 0.0 0.00 0.33 0.33 95 1013.3
20260904003330 72 309 0.0 0.0 0.00 0.33 0.33 95 1013.3
20260904002322 72 309 0.0 0.0 0.00 0.33 0.33 95 1013.3
20260904001314 72 309 0.0 0.0 0.00 0.33 0.33 94 1013.5
20260904000335 73 309 0.0 0.0 0.00 0.33 0.33 94 1013.1
20260903235333 73 309 0.0 0.0 0.00 0.33 0.33 94 1012.9
20260903234332 73 309 0.0 1.0 0.00 0.33 0.33 93 1012.7
20260903233329 74 309 0.0 0.0 0.00 0.33 0.33 93 1012.7
20260903232322 74 309 0.0 0.0 0.00 0.33 0.33 92 1012.5
20260903231318 75 309 0.0 0.0 0.00 0.33 0.33 91 1012.6
20260903230337 76 309 0.0 0.0 0.00 0.33 0.33 91 1012.7
20260903225331 77 309 0.0 0.0 0.00 0.33 0.33 90 1012.5
20260903224324 78 309 0.0 0.0 0.00 0.33 0.33 89 1012.6
20260903223319 79 309 0.0 0.0 0.00 0.33 0.33 87 1012.6
20260903222321 79 309 0.0 0.0 0.00 0.33 0.33 86 1013.0
20260903221312 79 309 0.0 0.0 0.00 0.33 0.33 86 1013.0
20260903220330 79 309 0.0 0.0 0.00 0.33 0.33 86 1012.8
20260903215324 79 309 0.0 0.0 0.00 0.33 0.33 85 1012.8
20260903214338 79 309 0.0 0.0 0.00 0.33 0.33 87 1012.8
20260903213334 79 309 0.0 0.0 0.00 0.33 0.33 85 1012.9
20260903212331 79 309 0.0 0.0 0.00 0.33 0.33 82 1012.7
20260903211323 79 309 0.0 0.0 0.00 0.33 0.33 85 1012.7
20260903210335 78 309 0.0 0.0 0.00 0.33 0.33 87 1012.7
20260903205336 78 309 0.0 0.0 0.00 0.33 0.33 87 1013.1
20260903204336 78 309 0.0 0.0 0.00 0.33 0.33 86 1013.2
20260903203329 79 309 0.0 0.0 0.00 0.33 0.33 84 1013.2
20260903202320 80 309 0.0 0.0 0.00 0.33 0.33 82 1013.3
20260903201313 80 309 0.0 0.0 0.00 0.33 0.33 81 1013.1
20260903200331 80 306 0.0 0.0 0.00 0.33 0.33 80 1013.2
20260903195326 81 306 0.0 1.0 0.00 0.34 0.33 76 1013.1
20260903194321 80 29 0.0 2.0 0.00 0.34 0.33 78 1013.2
20260903193316 81 342 0.0 1.0 0.00 0.34 0.33 80 1013.4
20260903192337 81 304 0.0 0.0 0.00 0.34 0.33 78 1013.4
20260903191330 81 304 0.0 1.0 0.00 0.34 0.33 78 1013.4